When you browse on this site, cookies collect data to enhance your experience and personalize the content and advertising you see.
Visit our Privacy Policy to learn more. By continuing to use the site, you agree to this use of cookies and data.
  • In Hungary
  • List of Countries
  • For 7 days
  • Water Temperature
  • Satellite Maps
  • Weather Map
  • News
  • Weather Widgets
  • user-avatar
    Login

    Hourly Weather Chivasso

    Today, 19 January, Saturday

    Time Temperature Precipitation Wind Pressure Humidity
    00:00 +4°C° 0.1 mm 2 mps 745 mmHg 73%
    01:00 +4°C° 0.1 mm 2 mps 745 mmHg 77%
    02:00 +4°C° 0.3 mm 2 mps 745 mmHg 80%
    03:00 +4°C° 0.3 mm 2 mps 745 mmHg 82%
    04:00 +5°C° 0.3 mm 1 mps 745 mmHg 84%
    05:00 +5°C° 0.3 mm 1 mps 745 mmHg 85%
    06:00 +4°C° 0.3 mm 1 mps 745 mmHg 86%
    07:00 +4°C° 0.3 mm 1 mps 745 mmHg 87%
    08:00 +4°C° 0.1 mm 1 mps 745 mmHg 85%
    09:00 +4°C° 0.1 mm 1 mps 745 mmHg 83%
    10:00 +4°C° 0.1 mm 1 mps 745 mmHg 80%
    11:00 +5°C° 0 mm 1 mps 744 mmHg 77%
    12:00 +5°C° 0 mm 1 mps 744 mmHg 74%
    13:00 +6°C° 0 mm 1 mps 744 mmHg 71%
    14:00 +6°C° 0 mm 1 mps 743 mmHg 71%
    15:00 +6°C° 0 mm 1 mps 743 mmHg 71%
    16:00 +6°C° 0 mm 1 mps 743 mmHg 71%
    17:00 +5°C° 0 mm 1 mps 743 mmHg 77%
    18:00 +3°C° 0 mm 0 mps 743 mmHg 82%
    19:00 +2°C° 0 mm 0 mps 743 mmHg 87%
    20:00 +2°C° 0 mm 0 mps 743 mmHg 88%
    21:00 +2°C° 0 mm 0 mps 744 mmHg 88%
    22:00 +2°C° 0 mm 0 mps 744 mmHg 89%
    23:00 +1°C° 0 mm 0 mps 744 mmHg 88%

    Tomorrow, 20 January, Sunday

    Time Temperature Precipitation Wind Pressure Humidity
    00:00 +1°C° 0 mm 0 mps 744 mmHg 88%
    01:00 +1°C° 0 mm 0 mps 744 mmHg 87%
    02:00 +1°C° 0 mm 0 mps 743 mmHg 87%
    03:00 +1°C° 0 mm 0 mps 743 mmHg 86%
    04:00 +1°C° 0 mm 0 mps 743 mmHg 85%
    05:00 +1°C° 0 mm 0 mps 743 mmHg 84%
    06:00 +1°C° 0 mm 0 mps 743 mmHg 84%
    07:00 +2°C° 0 mm 1 mps 743 mmHg 84%
    08:00 +2°C° 0 mm 1 mps 743 mmHg 81%
    09:00 +3°C° 0 mm 1 mps 743 mmHg 78%
    10:00 +4°C° 0 mm 1 mps 743 mmHg 75%
    11:00 +4°C° 0 mm 1 mps 743 mmHg 72%
    12:00 +5°C° 0 mm 1 mps 743 mmHg 69%
    13:00 +6°C° 0 mm 1 mps 742 mmHg 66%
    14:00 +6°C° 0 mm 1 mps 742 mmHg 67%
    15:00 +6°C° 0 mm 1 mps 742 mmHg 67%
    16:00 +6°C° 0 mm 1 mps 742 mmHg 68%
    17:00 +4°C° 0 mm 0 mps 743 mmHg 73%
    18:00 +3°C° 0 mm 0 mps 743 mmHg 77%
    19:00 +2°C° 0 mm 0 mps 744 mmHg 82%
    20:00 +2°C° 0 mm 0 mps 744 mmHg 83%
    21:00 +2°C° 0 mm 0 mps 744 mmHg 83%
    22:00 +2°C° 0 mm 0 mps 745 mmHg 84%
    23:00 +1°C° 0 mm 0 mps 745 mmHg 84%

    Day after tomorrow, 21 January, Monday

    Time Temperature Precipitation Wind Pressure Humidity
    00:00 +1°C° 0 mm 0 mps 745 mmHg 84%
    01:00 +1°C° 0 mm 0 mps 745 mmHg 84%
    02:00 +1°C° 0 mm 0 mps 745 mmHg 84%
    03:00 +1°C° 0 mm 0 mps 745 mmHg 84%
    04:00 +1°C° 0 mm 0 mps 745 mmHg 83%
    05:00 +1°C° 0 mm 0 mps 745 mmHg 82%
    06:00 +1°C° 0 mm 0 mps 746 mmHg 81%
    07:00 +1°C° 0 mm 0 mps 746 mmHg 81%
    08:00 +1°C° 0 mm 0 mps 746 mmHg 75%
    09:00 +3°C° 0 mm 1 mps 746 mmHg 70%
    10:00 +4°C° 0 mm 1 mps 747 mmHg 65%
    11:00 +5°C° 0 mm 1 mps 746 mmHg 62%
    12:00 +6°C° 0 mm 1 mps 746 mmHg 59%
    13:00 +7°C° 0 mm 1 mps 746 mmHg 55%
    14:00 +7°C° 0 mm 1 mps 746 mmHg 57%
    15:00 +7°C° 0 mm 1 mps 745 mmHg 59%
    16:00 +7°C° 0 mm 1 mps 745 mmHg 60%
    17:00 +6°C° 0 mm 1 mps 746 mmHg 65%
    18:00 +3°C° 0 mm 0 mps 746 mmHg 70%
    19:00 +2°C° 0 mm 0 mps 746 mmHg 74%
    20:00 +2°C° 0 mm 0 mps 747 mmHg 73%
    21:00 +2°C° 0 mm 0 mps 747 mmHg 72%
    22:00 +1°C° 0 mm 0 mps 747 mmHg 71%
    23:00 +1°C° 0 mm 0 mps 747 mmHg 70%

    22 January, Tuesday

    Time Temperature Precipitation Wind Pressure Humidity
    00:00 +1°C° 0 mm 0 mps 747 mmHg 69%
    01:00 +1°C° 0 mm 0 mps 747 mmHg 68%
    02:00 +1°C° 0 mm 0 mps 746 mmHg 68%
    03:00 +1°C° 0 mm 0 mps 746 mmHg 68%
    04:00 0°C° 0 mm 0 mps 745 mmHg 67%
    05:00 0°C° 0 mm 0 mps 745 mmHg 68%
    06:00 0°C° 0 mm 0 mps 744 mmHg 69%
    07:00 0°C° 0 mm 0 mps 744 mmHg 69%
    08:00 +1°C° 0 mm 0 mps 744 mmHg 69%
    09:00 +1°C° 0 mm 0 mps 743 mmHg 68%
    10:00 +2°C° 0 mm 0 mps 743 mmHg 67%
    11:00 +4°C° 0 mm 1 mps 742 mmHg 67%
    12:00 +4°C° 0 mm 1 mps 741 mmHg 67%
    13:00 +5°C° 0 mm 1 mps 740 mmHg 67%
    14:00 +5°C° 0 mm 1 mps 739 mmHg 69%
    15:00 +5°C° 0 mm 1 mps 738 mmHg 71%
    16:00 +4°C° 0 mm 1 mps 737 mmHg 73%
    17:00 +4°C° 0 mm 1 mps 736 mmHg 77%
    18:00 +3°C° 0 mm 1 mps 736 mmHg 81%
    19:00 +2°C° 0 mm 1 mps 736 mmHg 85%
    20:00 +2°C° 0.1 mm 1 mps 735 mmHg 85%
    21:00 +1°C° 0.1 mm 2 mps 734 mmHg 84%
    22:00 +1°C° 0.1 mm 2 mps 734 mmHg 83%
    23:00 +1°C° 0.4 mm 2 mps 733 mmHg 84%

    23 January, Wednesday

    Time Temperature Precipitation Wind Pressure Humidity
    00:00 +1°C° 0.4 mm 2 mps 732 mmHg 85%
    01:00 +1°C° 0.4 mm 2 mps 731 mmHg 86%
    02:00 +1°C° 0.4 mm 1 mps 731 mmHg 88%
    03:00 +1°C° 0.4 mm 1 mps 730 mmHg 90%
    04:00 +1°C° 0.4 mm 1 mps 729 mmHg 93%
    05:00 +1°C° 0.2 mm 1 mps 729 mmHg 91%
    06:00 +1°C° 0.2 mm 1 mps 728 mmHg 89%
    07:00 +1°C° 0.2 mm 1 mps 728 mmHg 87%
    08:00 +1°C° 0.2 mm 1 mps 728 mmHg 83%
    09:00 +1°C° 0.2 mm 0 mps 727 mmHg 78%
    10:00 +1°C° 0.2 mm 0 mps 727 mmHg 74%
    11:00 +2°C° 0.1 mm 0 mps 726 mmHg 72%
    12:00 +2°C° 0.1 mm 0 mps 726 mmHg 70%
    13:00 +4°C° 0.1 mm 1 mps 725 mmHg 67%
    14:00 +4°C° 0.2 mm 1 mps 724 mmHg 67%
    15:00 +4°C° 0.2 mm 1 mps 724 mmHg 67%
    16:00 +4°C° 0.2 mm 1 mps 723 mmHg 67%
    17:00 +3°C° 0.1 mm 1 mps 723 mmHg 68%
    18:00 +2°C° 0.1 mm 1 mps 723 mmHg 69%
    19:00 +2°C° 0.1 mm 1 mps 722 mmHg 70%
    20:00 +1°C° 0 mm 2 mps 722 mmHg 64%
    21:00 +1°C° 0 mm 2 mps 722 mmHg 59%
    22:00 +1°C° 0 mm 2 mps 721 mmHg 54%
    23:00 +1°C° 0 mm 2 mps 721 mmHg 55%

    24 January, Thursday

    Time Temperature Precipitation Wind Pressure Humidity
    00:00 +2°C° 0 mm 1 mps 721 mmHg 55%
    01:00 +2°C° 0 mm 1 mps 722 mmHg 56%
    02:00 +2°C° 0.1 mm 1 mps 722 mmHg 57%
    03:00 +2°C° 0.1 mm 1 mps 722 mmHg 59%
    04:00 +1°C° 0.1 mm 1 mps 722 mmHg 61%
    05:00 +1°C° 0.1 mm 1 mps 723 mmHg 63%
    06:00 +1°C° 0.1 mm 1 mps 723 mmHg 65%
    07:00 +1°C° 0.1 mm 1 mps 724 mmHg 66%
    08:00 +1°C° 0 mm 2 mps 724 mmHg 62%
    09:00 +1°C° 0 mm 3 mps 725 mmHg 58%
    10:00 0°C° 0 mm 4 mps 725 mmHg 54%
    11:00 +3°C° 0 mm 3 mps 724 mmHg 51%
    12:00 +4°C° 0 mm 3 mps 724 mmHg 48%
    13:00 +5°C° 0 mm 3 mps 723 mmHg 45%
    14:00 +6°C° 0 mm 2 mps 723 mmHg 46%
    15:00 +6°C° 0 mm 2 mps 723 mmHg 46%
    16:00 +6°C° 0 mm 1 mps 723 mmHg 46%
    17:00 +6°C° 0 mm 1 mps 724 mmHg 48%
    18:00 +5°C° 0 mm 1 mps 724 mmHg 50%
    19:00 +4°C° 0 mm 1 mps 725 mmHg 51%
    20:00 +4°C° 0.1 mm 1 mps 725 mmHg 53%
    21:00 +4°C° 0.1 mm 1 mps 726 mmHg 54%
    22:00 +3°C° 0.1 mm 2 mps 727 mmHg 56%
    23:00 +2°C° 0 mm 2 mps 727 mmHg 54%
    Show more